sat.trackr.live / text

‹ back to catalog

HULIANWANG DIGUI-51

NORAD 65108 · 2025-168C

PAYLOAD ACTIVE UNKNOWN

§ Identity

Operator
Country
PRC
Launch date
2025-08-04
Launch site
WSC
Launch vehicle
Mass (kg)
RCS (m²)

External: N2YO · Heavens-Above · Gunter

§ Orbital elements

Epoch: 2026-05-25T03:20:41.433216Z

Period
108.33 min
Inclination
50.0048°
Eccentricity
0.0010641
Mean motion
13.29320326 rev/d
Perigee alt
1,141.3 km
Apogee alt
1,157.3 km
Semi-major
7,527.5 km
B*
9.2582e-5
RAAN
48.4946°
Arg perigee
20.2816°
Mean anomaly
339.8477°
Rev number
3,962

§ Raw data

HULIANWANG DIGUI-511 65108U 25168C   26145.13936844 -.00000081  00000+0  92582-4 0  99972 65108  50.0048  48.4946 0010641  20.2816 339.8477 13.29320326 39627

JSON: /api/v1/satellites/65108 · /tle

For live sub-satellite position, see the globe view (requires WebGL).

§ Visibility from observer

Set your observer location to see the next 7 days of passes ≥ 10°. The values pass through the URL so the page stays shareable.

No JS? Fill the form by hand. The geolocation button needs JavaScript.